• în Republica Moldova
  • Lista ţărilor
  • Pe 7 zile
  • Temperatura apei
  • Hartă satelitară
  • Meteo pe hartă
  • Widget-uri
  • user-avatar
    Intrare

    Meteo pe oră la Elbasan

    Astăzi, 24 Septembrie, Luni

    Timp Temperatura Precipitaţii Vânt Presiune Umiditate
    00:00 +22°C° 0 mm 1 m/s 737 mmHg 57%
    01:00 +21°C° 0 mm 1 m/s 736 mmHg 57%
    02:00 +21°C° 0 mm 1 m/s 736 mmHg 57%
    03:00 +20°C° 0 mm 2 m/s 736 mmHg 57%
    04:00 +19°C° 0 mm 2 m/s 736 mmHg 57%
    05:00 +20°C° 0 mm 2 m/s 736 mmHg 54%
    06:00 +21°C° 0 mm 2 m/s 736 mmHg 52%
    07:00 +23°C° 0 mm 2 m/s 735 mmHg 50%
    08:00 +25°C° 0 mm 2 m/s 735 mmHg 45%
    09:00 +27°C° 0 mm 2 m/s 735 mmHg 40%
    10:00 +29°C° 0 mm 2 m/s 735 mmHg 35%
    11:00 +30°C° 0 mm 3 m/s 735 mmHg 34%
    12:00 +30°C° 0 mm 3 m/s 735 mmHg 34%
    13:00 +31°C° 0 mm 3 m/s 735 mmHg 33%
    14:00 +30°C° 0.1 mm 3 m/s 735 mmHg 38%
    15:00 +30°C° 0.1 mm 3 m/s 735 mmHg 43%
    16:00 +29°C° 0.1 mm 3 m/s 735 mmHg 48%
    17:00 +27°C° 0.2 mm 3 m/s 735 mmHg 56%
    18:00 +25°C° 0.2 mm 3 m/s 736 mmHg 64%
    19:00 +23°C° 0.2 mm 2 m/s 736 mmHg 72%
    20:00 +21°C° 0 mm 2 m/s 737 mmHg 72%
    21:00 +20°C° 0 mm 3 m/s 737 mmHg 71%
    22:00 +19°C° 0 mm 3 m/s 738 mmHg 71%
    23:00 +18°C° 0 mm 3 m/s 738 mmHg 69%

    Mâine, 25 Septembrie, Marţi

    Timp Temperatura Precipitaţii Vânt Presiune Umiditate
    00:00 +17°C° 0 mm 3 m/s 738 mmHg 67%
    01:00 +17°C° 0 mm 4 m/s 739 mmHg 65%
    02:00 +15°C° 0 mm 4 m/s 739 mmHg 64%
    03:00 +14°C° 0 mm 4 m/s 739 mmHg 63%
    04:00 +14°C° 0 mm 4 m/s 739 mmHg 63%
    05:00 +14°C° 0 mm 4 m/s 739 mmHg 60%
    06:00 +14°C° 0 mm 4 m/s 740 mmHg 57%
    07:00 +14°C° 0 mm 5 m/s 740 mmHg 55%
    08:00 +16°C° 0 mm 5 m/s 740 mmHg 48%
    09:00 +19°C° 0 mm 5 m/s 740 mmHg 42%
    10:00 +21°C° 0 mm 5 m/s 741 mmHg 36%
    11:00 +22°C° 0 mm 4 m/s 740 mmHg 33%
    12:00 +23°C° 0 mm 4 m/s 740 mmHg 31%
    13:00 +25°C° 0 mm 4 m/s 740 mmHg 29%
    14:00 +23°C° 0 mm 4 m/s 740 mmHg 29%
    15:00 +23°C° 0 mm 5 m/s 740 mmHg 29%
    16:00 +22°C° 0 mm 5 m/s 740 mmHg 29%
    17:00 +21°C° 0 mm 5 m/s 740 mmHg 31%
    18:00 +19°C° 0 mm 5 m/s 741 mmHg 33%
    19:00 +17°C° 0 mm 4 m/s 741 mmHg 34%
    20:00 +15°C° 0 mm 4 m/s 742 mmHg 36%
    21:00 +14°C° 0 mm 4 m/s 742 mmHg 38%
    22:00 +13°C° 0 mm 4 m/s 743 mmHg 40%
    23:00 +12°C° 0 mm 4 m/s 743 mmHg 42%

    Poimâine, 26 Septembrie, Miercuri

    Timp Temperatura Precipitaţii Vânt Presiune Umiditate
    00:00 +11°C° 0 mm 4 m/s 743 mmHg 44%
    01:00 +11°C° 0 mm 4 m/s 743 mmHg 46%
    02:00 +10°C° 0 mm 4 m/s 743 mmHg 47%
    03:00 +10°C° 0 mm 4 m/s 743 mmHg 48%
    04:00 +8°C° 0 mm 4 m/s 743 mmHg 48%
    05:00 +10°C° 0 mm 4 m/s 743 mmHg 46%
    06:00 +11°C° 0 mm 4 m/s 743 mmHg 44%
    07:00 +10°C° 0 mm 5 m/s 744 mmHg 42%
    08:00 +13°C° 0 mm 5 m/s 744 mmHg 37%
    09:00 +15°C° 0 mm 5 m/s 744 mmHg 33%
    10:00 +17°C° 0 mm 6 m/s 744 mmHg 28%
    11:00 +19°C° 0 mm 6 m/s 744 mmHg 27%
    12:00 +19°C° 0 mm 6 m/s 743 mmHg 26%
    13:00 +20°C° 0 mm 6 m/s 743 mmHg 25%
    14:00 +19°C° 0 mm 6 m/s 743 mmHg 25%
    15:00 +19°C° 0 mm 6 m/s 743 mmHg 26%
    16:00 +19°C° 0 mm 6 m/s 743 mmHg 27%
    17:00 +16°C° 0 mm 6 m/s 743 mmHg 31%
    18:00 +14°C° 0 mm 5 m/s 744 mmHg 35%
    19:00 +12°C° 0 mm 4 m/s 744 mmHg 39%
    20:00 +11°C° 0 mm 4 m/s 745 mmHg 41%
    21:00 +10°C° 0 mm 4 m/s 745 mmHg 44%
    22:00 +10°C° 0 mm 3 m/s 745 mmHg 46%
    23:00 +9°C° 0 mm 3 m/s 745 mmHg 48%

    27 Septembrie, Joi

    Timp Temperatura Precipitaţii Vânt Presiune Umiditate
    00:00 +9°C° 0 mm 3 m/s 745 mmHg 50%
    01:00 +8°C° 0 mm 3 m/s 745 mmHg 51%
    02:00 +8°C° 0 mm 3 m/s 745 mmHg 52%
    03:00 +8°C° 0 mm 3 m/s 744 mmHg 53%
    04:00 +7°C° 0 mm 3 m/s 744 mmHg 54%
    05:00 +8°C° 0 mm 3 m/s 744 mmHg 51%
    06:00 +9°C° 0 mm 3 m/s 744 mmHg 48%
    07:00 +10°C° 0 mm 3 m/s 744 mmHg 45%
    08:00 +13°C° 0 mm 3 m/s 744 mmHg 38%
    09:00 +16°C° 0 mm 3 m/s 743 mmHg 30%
    10:00 +18°C° 0 mm 4 m/s 743 mmHg 23%
    11:00 +20°C° 0 mm 4 m/s 742 mmHg 21%
    12:00 +21°C° 0 mm 4 m/s 741 mmHg 18%
    13:00 +22°C° 0 mm 4 m/s 741 mmHg 16%
    14:00 +22°C° 0 mm 4 m/s 740 mmHg 17%
    15:00 +22°C° 0 mm 5 m/s 740 mmHg 18%
    16:00 +22°C° 0 mm 5 m/s 739 mmHg 19%
    17:00 +19°C° 0 mm 4 m/s 739 mmHg 23%
    18:00 +17°C° 0 mm 4 m/s 739 mmHg 27%
    19:00 +13°C° 0 mm 4 m/s 740 mmHg 31%
    20:00 +13°C° 0 mm 4 m/s 739 mmHg 33%
    21:00 +12°C° 0 mm 3 m/s 739 mmHg 35%
    22:00 +12°C° 0 mm 3 m/s 739 mmHg 37%
    23:00 +12°C° 0 mm 3 m/s 739 mmHg 37%

    28 Septembrie, Vineri

    Timp Temperatura Precipitaţii Vânt Presiune Umiditate
    00:00 +11°C° 0 mm 3 m/s 739 mmHg 38%
    01:00 +11°C° 0 mm 3 m/s 738 mmHg 38%
    02:00 +12°C° 0 mm 3 m/s 738 mmHg 37%
    03:00 +12°C° 0 mm 3 m/s 738 mmHg 37%
    04:00 +12°C° 0 mm 3 m/s 737 mmHg 36%
    05:00 +13°C° 0 mm 3 m/s 737 mmHg 35%
    06:00 +13°C° 0 mm 3 m/s 737 mmHg 35%
    07:00 +14°C° 0 mm 3 m/s 737 mmHg 34%
    08:00 +17°C° 0 mm 3 m/s 737 mmHg 30%
    09:00 +20°C° 0 mm 3 m/s 737 mmHg 25%
    10:00 +22°C° 0 mm 3 m/s 737 mmHg 21%
    11:00 +24°C° 0 mm 3 m/s 736 mmHg 23%
    12:00 +25°C° 0 mm 3 m/s 736 mmHg 25%
    13:00 +26°C° 0 mm 3 m/s 736 mmHg 26%
    14:00 +26°C° 0 mm 3 m/s 735 mmHg 29%
    15:00 +25°C° 0 mm 3 m/s 735 mmHg 31%
    16:00 +25°C° 0 mm 3 m/s 735 mmHg 33%
    17:00 +22°C° 0 mm 3 m/s 735 mmHg 39%
    18:00 +20°C° 0 mm 2 m/s 735 mmHg 44%
    19:00 +18°C° 0 mm 2 m/s 735 mmHg 50%
    20:00 +17°C° 0 mm 2 m/s 736 mmHg 50%
    21:00 +17°C° 0 mm 2 m/s 736 mmHg 51%
    22:00 +16°C° 0 mm 2 m/s 736 mmHg 52%
    23:00 +16°C° 0 mm 2 m/s 735 mmHg 51%

    29 Septembrie, Sâmbătă

    Timp Temperatura Precipitaţii Vânt Presiune Umiditate
    00:00 +16°C° 0 mm 2 m/s 735 mmHg 50%
    01:00 +15°C° 0 mm 2 m/s 735 mmHg 49%
    02:00 +15°C° 0 mm 2 m/s 735 mmHg 49%
    03:00 +15°C° 0 mm 2 m/s 735 mmHg 49%
    04:00 +15°C° 0 mm 2 m/s 735 mmHg 49%
    05:00 +16°C° 0 mm 2 m/s 735 mmHg 48%
    06:00 +16°C° 0 mm 2 m/s 735 mmHg 48%
    07:00 +17°C° 0 mm 2 m/s 735 mmHg 47%
    08:00 +20°C° 0 mm 2 m/s 735 mmHg 43%
    09:00 +23°C° 0 mm 2 m/s 735 mmHg 40%
    10:00 +25°C° 0 mm 1 m/s 736 mmHg 36%
    11:00 +26°C° 0 mm 2 m/s 735 mmHg 34%
    12:00 +27°C° 0 mm 2 m/s 735 mmHg 33%
    13:00 +27°C° 0 mm 3 m/s 735 mmHg 31%
    14:00 +27°C° 0 mm 3 m/s 735 mmHg 32%
    15:00 +27°C° 0 mm 3 m/s 735 mmHg 32%
    16:00 +26°C° 0 mm 4 m/s 735 mmHg 32%
    17:00 +24°C° 0 mm 3 m/s 735 mmHg 37%
    18:00 +21°C° 0 mm 3 m/s 736 mmHg 42%
    19:00 +18°C° 0 mm 2 m/s 736 mmHg 47%
    20:00 +18°C° 0 mm 2 m/s 736 mmHg 48%
    21:00 +17°C° 0 mm 2 m/s 736 mmHg 48%
    22:00 +17°C° 0 mm 2 m/s 737 mmHg 49%
    23:00 +16°C° 0 mm 2 m/s 737 mmHg 49%
    Arată mai mult

    3.3.7123123